Pineville, WV

11:15 PM EST on November 19, 2017 (GMT -0500)
Pineville

Weather History for KI16 - April, 2014

Change the Weather History Date:

Saturday, April 19, 2014

  Actual Average (KBKW) Record (KBKW)
Temperature  
Mean Temperature 58 °F -  
Max Temperature 72 °F 64 °F 84 °F (1976)
Min Temperature 43 °F 42 °F 20 °F (1926)
Degree Days  
Heating Degree Days 8    
Growing Degree Days 8 (Base 50)    
Moisture  
Dew Point 40 °F    
Average Humidity 59    
Maximum Humidity 90    
Minimum Humidity 28    
Precipitation  
Precipitation 0.00 in - - ()
Sea Level Pressure  
Sea Level Pressure 30.24 in    
Wind  
Wind Speed - (North)    
Max Wind Speed -    
Max Gust Speed -    
Visibility 10 miles    
Events      
Averages and records for this station are not official NWS values.
T = Trace of Precipitation, MM = Missing Value Source: NWS Daily Summary

Daily Weather History Graph

Daily Weather History Graph

Search for Another Location

Airport or City:

Trip Planner

Search our weather history database for the weather conditions in past years. The results will help you decide how hot, cold, wet, or windy it might be!

Date:

Astronomy

Apr. 19, 2014 Rise Set
Actual Time 6:45 AM EDT 8:05 PM EDT
Civil Twilight 6:18 AM EDT 8:32 PM EDT
Nautical Twilight 5:46 AM EDT 9:05 PM EDT
Astronomical Twilight 5:11 AM EDT 9:39 PM EDT
Moon No Moon Rise 10:05 AM EDT (4/19)
Length of Visible Light 14h 14m
Length of Day
13h 19m
Waning Gibbous, 79% of the Moon is Illuminated
Apr 19
Waning Gibbous
Apr 22
Last Quarter
Apr 29
New
May 6
First Quarter
May 14
Full

Hourly Weather History & Observations

Time (EDT) Temp. Dew Point Humidity Pressure Visibility Wind Dir Wind Speed Gust Speed Precip Events Conditions
12:15 AM 50.4 °F 42.8 °F 75% 30.25 in 10.0 mi North - - N/A   Clear
12:35 AM 50.0 °F 43.3 °F 78% 30.26 in 10.0 mi North - - N/A   Clear
12:55 AM 49.8 °F 43.2 °F 78% 30.26 in 10.0 mi North - - N/A   Clear
1:15 AM 49.3 °F 42.3 °F 77% 30.26 in 10.0 mi North - - N/A   Clear
1:35 AM 49.3 °F 42.3 °F 77% 30.25 in 10.0 mi North - - N/A   Clear
1:55 AM 49.1 °F 42.4 °F 78% 30.24 in 10.0 mi North - - N/A   Clear
2:15 AM 48.7 °F 41.9 °F 77% 30.23 in 10.0 mi North - - N/A   Clear
2:35 AM 48.2 °F 41.7 °F 78% 30.23 in 10.0 mi North - - N/A   Clear
2:55 AM 47.7 °F 41.7 °F 80% 30.23 in 10.0 mi North - - N/A   Clear
3:15 AM 47.3 °F 42.3 °F 83% 30.23 in 10.0 mi North - - N/A   Clear
3:35 AM 46.4 °F 41.4 °F 83% 30.23 in 10.0 mi North - - N/A   Clear
3:55 AM 45.9 °F 41.4 °F 84% 30.22 in 10.0 mi North - - N/A   Clear
4:15 AM 45.3 °F 41.0 °F 85% 30.22 in 10.0 mi North - - N/A   Clear
4:35 AM 45.1 °F 41.2 °F 86% 30.22 in 10.0 mi North - - N/A   Clear
4:55 AM 45.5 °F 41.2 °F 85% 30.22 in 10.0 mi North - - N/A   Clear
5:15 AM 45.0 °F 41.2 °F 87% 30.23 in 10.0 mi North - - N/A   Clear
5:35 AM 45.0 °F 41.4 °F 87% 30.23 in 10.0 mi North - - N/A   Clear
5:55 AM 44.6 °F 41.2 °F 88% 30.23 in 10.0 mi North - - N/A   Clear
6:15 AM 44.6 °F 41.0 °F 87% 30.24 in 10.0 mi North - - N/A   Clear
6:35 AM 43.7 °F 40.8 °F 90% 30.24 in 10.0 mi North - - N/A   Clear
6:55 AM 43.9 °F 41.0 °F 90% 30.24 in 10.0 mi North - - N/A   Clear
7:15 AM 44.1 °F 40.8 °F 88% 30.25 in 10.0 mi North - - N/A   Clear
7:35 AM 44.1 °F 41.4 °F 90% 30.25 in 10.0 mi North - - N/A   Clear
7:55 AM 45.5 °F 42.1 °F 88% 30.26 in 10.0 mi North - - N/A   Clear
8:15 AM 46.9 °F 42.6 °F 85% 30.25 in 10.0 mi North - - N/A   Clear
8:35 AM 48.4 °F 42.8 °F 81% 30.26 in 10.0 mi North - - N/A   Clear
8:55 AM 50.5 °F 42.4 °F 74% 30.27 in 10.0 mi North - - N/A   Clear
9:15 AM 52.7 °F 43.2 °F 70% 30.26 in 10.0 mi North - - N/A   Clear
9:35 AM 54.7 °F 43.2 °F 65% 30.26 in 10.0 mi North - - N/A   Clear
9:55 AM 56.1 °F 43.9 °F 64% 30.27 in 10.0 mi North - - N/A   Clear
10:15 AM 57.9 °F 43.9 °F 60% 30.26 in 10.0 mi North - - N/A   Clear
10:35 AM 61.5 °F 38.3 °F 42% 30.26 in 10.0 mi North - - N/A   Clear
10:55 AM 63.5 °F 37.6 °F 38% 30.26 in 10.0 mi North - - N/A   Clear
11:15 AM 64.8 °F 37.2 °F 36% 30.27 in 10.0 mi North - - N/A   Clear
11:35 AM 65.3 °F 36.7 °F 35% 30.28 in 10.0 mi North - - N/A   Clear
11:55 AM 66.0 °F 36.9 °F 34% 30.27 in 10.0 mi North - - N/A   Clear
12:15 PM 68.9 °F 37.8 °F 32% 30.26 in 10.0 mi North - - N/A   Clear
12:35 PM 69.1 °F 36.9 °F 31% 30.25 in 10.0 mi North - - N/A   Clear
1:15 PM 71.4 °F 37.0 °F 29% 30.25 in 10.0 mi North - - N/A   Clear
1:35 PM 71.1 °F 36.7 °F 28% 30.24 in 10.0 mi North - - N/A   Clear
1:55 PM 71.8 °F 37.0 °F 28% 30.24 in 10.0 mi North - - N/A   Clear
2:15 PM 71.6 °F 38.1 °F 30% 30.24 in 10.0 mi North - - N/A   Clear
2:35 PM 71.8 °F 37.9 °F 29% 30.23 in 10.0 mi North - - N/A   Clear
2:55 PM 72.0 °F 38.7 °F 30% 30.23 in 10.0 mi North - - N/A   Clear
3:15 PM 72.5 °F 38.7 °F 29% 30.23 in 10.0 mi North - - N/A   Clear
3:35 PM 71.8 °F 38.3 °F 30% 30.22 in 10.0 mi North - - N/A   Clear
3:55 PM 71.6 °F 38.1 °F 30% 30.22 in 10.0 mi North - - N/A   Clear
4:15 PM 72.1 °F 37.8 °F 29% 30.21 in 10.0 mi North - - N/A   Clear
4:35 PM 71.1 °F 37.0 °F 29% 30.21 in 10.0 mi North - - N/A   Clear
4:55 PM 71.2 °F 37.2 °F 29% 30.21 in 10.0 mi North - - N/A   Clear
5:15 PM 71.1 °F 37.2 °F 29% 30.21 in 10.0 mi North - - N/A   Clear
5:35 PM 70.9 °F 37.2 °F 29% 30.22 in 10.0 mi North - - N/A   Clear
5:55 PM 70.3 °F 37.9 °F 31% 30.22 in 10.0 mi North - - N/A   Clear
6:15 PM 70.2 °F 37.8 °F 31% 30.22 in 10.0 mi North - - N/A   Clear
6:35 PM 69.4 °F 37.8 °F 31% 30.22 in 10.0 mi North - - N/A   Clear
6:55 PM 69.1 °F 37.8 °F 32% 30.22 in 10.0 mi North - - N/A   Clear
7:15 PM 68.2 °F 37.9 °F 33% 30.22 in 10.0 mi North - - N/A   Clear
7:35 PM 66.4 °F 39.6 °F 37% 30.22 in 10.0 mi North - - N/A   Clear
7:55 PM 64.4 °F 38.7 °F 39% 30.23 in 10.0 mi North - - N/A   Clear
8:15 PM 61.7 °F 41.9 °F 48% 30.23 in 10.0 mi North - - N/A   Clear
8:35 PM 59.2 °F 42.4 °F 54% 30.24 in 10.0 mi North - - N/A   Clear
8:55 PM 57.2 °F 43.3 °F 60% 30.25 in 10.0 mi North - - N/A   Clear
9:15 PM 55.8 °F 43.3 °F 63% 30.26 in 10.0 mi North - - N/A   Clear
9:35 PM 54.7 °F 43.5 °F 66% 30.27 in 10.0 mi North - - N/A   Clear
9:55 PM 54.5 °F 43.3 °F 66% 30.27 in 10.0 mi North - - N/A   Clear
10:15 PM 54.1 °F 43.3 °F 67% 30.27 in 10.0 mi North - - N/A   Clear
10:35 PM 53.6 °F 43.7 °F 69% 30.28 in 10.0 mi North - - N/A   Clear
10:55 PM 52.7 °F 43.7 °F 71% 30.28 in 10.0 mi North - - N/A   Clear
11:15 PM 52.7 °F 43.5 °F 71% 30.28 in 10.0 mi North - - N/A   Clear
11:35 PM 51.8 °F 42.1 °F 69% 30.29 in 10.0 mi North - - N/A   Clear
11:55 PM 50.0 °F 42.6 °F 76% 30.29 in 10.0 mi North - - N/A   Clear